Year,Month,Day,Hour,Minute,Value (Times are PST for insolation in W/m^2)
2013,12,18,00,00,0.00
2013,12,18,00,01,0.00
2013,12,18,00,02,0.00
2013,12,18,00,03,0.00
2013,12,18,00,04,0.00
2013,12,18,00,05,0.00
2013,12,18,00,06,0.00
2013,12,18,00,07,0.00
2013,12,18,00,08,0.00
2013,12,18,00,09,0.00
2013,12,18,00,10,0.00
2013,12,18,00,11,0.00
2013,12,18,00,12,0.00
2013,12,18,00,13,0.00
2013,12,18,00,14,0.00
2013,12,18,00,15,0.00
2013,12,18,00,16,0.00
2013,12,18,00,17,0.00
2013,12,18,00,18,0.00
2013,12,18,00,19,0.00
2013,12,18,00,20,0.00
2013,12,18,00,21,0.00
2013,12,18,00,22,0.00
2013,12,18,00,23,0.00
2013,12,18,00,24,0.00
2013,12,18,00,25,0.00
2013,12,18,00,26,0.00
2013,12,18,00,27,0.00
2013,12,18,00,28,0.00
2013,12,18,00,29,0.00
2013,12,18,00,30,0.00
2013,12,18,00,31,0.00
2013,12,18,00,32,0.00
2013,12,18,00,33,0.00
2013,12,18,00,34,0.00
2013,12,18,00,35,0.00
2013,12,18,00,36,0.00
2013,12,18,00,37,0.00
2013,12,18,00,38,0.00
2013,12,18,00,39,0.00
2013,12,18,00,40,0.00
2013,12,18,00,41,0.00
2013,12,18,00,42,0.00
2013,12,18,00,43,0.00
2013,12,18,00,44,0.00
2013,12,18,00,45,0.00
2013,12,18,00,46,0.00
2013,12,18,00,47,0.00
2013,12,18,00,48,0.00
2013,12,18,00,49,0.00
2013,12,18,00,50,0.00
2013,12,18,00,51,0.00
2013,12,18,00,52,0.00
2013,12,18,00,53,0.00
2013,12,18,00,54,0.00
2013,12,18,00,55,0.00
2013,12,18,00,56,0.00
2013,12,18,00,57,0.00
2013,12,18,00,58,0.00
2013,12,18,00,59,0.00
2013,12,18,01,00,0.00
2013,12,18,01,01,0.00
2013,12,18,01,02,0.00
2013,12,18,01,03,0.00
2013,12,18,01,04,0.00
2013,12,18,01,05,0.00
2013,12,18,01,06,0.00
2013,12,18,01,07,0.00
2013,12,18,01,08,0.00
2013,12,18,01,09,0.00
2013,12,18,01,10,0.00
2013,12,18,01,11,0.00
2013,12,18,01,12,0.00
2013,12,18,01,13,0.00
2013,12,18,01,14,0.00
2013,12,18,01,15,0.00
2013,12,18,01,16,0.00
2013,12,18,01,17,0.00
2013,12,18,01,18,0.00
2013,12,18,01,19,0.00
2013,12,18,01,20,0.00
2013,12,18,01,21,0.00
2013,12,18,01,22,0.00
2013,12,18,01,23,0.00
2013,12,18,01,24,0.00
2013,12,18,01,25,0.00
2013,12,18,01,26,0.00
2013,12,18,01,27,0.00
2013,12,18,01,28,0.00
2013,12,18,01,29,0.00
2013,12,18,01,30,0.00
2013,12,18,01,31,0.00
2013,12,18,01,32,0.00
2013,12,18,01,33,0.00
2013,12,18,01,34,0.00
2013,12,18,01,35,0.00
2013,12,18,01,36,0.00
2013,12,18,01,37,0.00
2013,12,18,01,38,0.00
2013,12,18,01,39,0.00
2013,12,18,01,40,0.00
2013,12,18,01,41,0.00
2013,12,18,01,42,0.00
2013,12,18,01,43,0.00
2013,12,18,01,44,0.00
2013,12,18,01,45,0.00
2013,12,18,01,46,0.00
2013,12,18,01,47,0.00
2013,12,18,01,48,0.00
2013,12,18,01,49,0.00
2013,12,18,01,50,0.00
2013,12,18,01,51,0.00
2013,12,18,01,52,0.00
2013,12,18,01,53,0.00
2013,12,18,01,54,0.00
2013,12,18,01,55,0.00
2013,12,18,01,56,0.00
2013,12,18,01,57,0.00
2013,12,18,01,58,0.00
2013,12,18,01,59,0.00
2013,12,18,02,00,0.00
2013,12,18,02,01,0.00
2013,12,18,02,02,0.00
2013,12,18,02,03,0.00
2013,12,18,02,04,0.00
2013,12,18,02,05,0.00
2013,12,18,02,06,0.00
2013,12,18,02,07,0.00
2013,12,18,02,08,0.00
2013,12,18,02,09,0.00
2013,12,18,02,10,0.00
2013,12,18,02,11,0.00
2013,12,18,02,12,0.00
2013,12,18,02,13,0.00
2013,12,18,02,14,0.00
2013,12,18,02,15,0.00
2013,12,18,02,16,0.00
2013,12,18,02,17,0.00
2013,12,18,02,18,0.00
2013,12,18,02,19,0.00
2013,12,18,02,20,0.00
2013,12,18,02,21,0.00
2013,12,18,02,22,0.00
2013,12,18,02,23,0.00
2013,12,18,02,24,0.00
2013,12,18,02,25,0.00
2013,12,18,02,26,0.00
2013,12,18,02,27,0.00
2013,12,18,02,28,0.00
2013,12,18,02,29,0.00
2013,12,18,02,30,0.00
2013,12,18,02,31,0.00
2013,12,18,02,32,0.00
2013,12,18,02,33,0.00
2013,12,18,02,34,0.00
2013,12,18,02,35,0.00
2013,12,18,02,36,0.00
2013,12,18,02,37,0.00
2013,12,18,02,38,0.00
2013,12,18,02,39,0.00
2013,12,18,02,40,0.00
2013,12,18,02,41,0.00
2013,12,18,02,42,0.00
2013,12,18,02,43,0.00
2013,12,18,02,44,0.00
2013,12,18,02,45,0.00
2013,12,18,02,46,0.00
2013,12,18,02,47,0.00
2013,12,18,02,48,0.00
2013,12,18,02,49,0.00
2013,12,18,02,50,0.00
2013,12,18,02,51,0.00
2013,12,18,02,52,0.00
2013,12,18,02,53,0.00
2013,12,18,02,54,0.00
2013,12,18,02,55,0.00
2013,12,18,02,56,0.00
2013,12,18,02,57,0.00
2013,12,18,02,58,0.00
2013,12,18,02,59,0.00
2013,12,18,03,00,0.00
2013,12,18,03,01,0.00
2013,12,18,03,02,0.00
2013,12,18,03,03,0.00
2013,12,18,03,04,0.00
2013,12,18,03,05,0.00
2013,12,18,03,06,0.00
2013,12,18,03,07,0.00
2013,12,18,03,08,0.00
2013,12,18,03,09,0.00
2013,12,18,03,10,0.00
2013,12,18,03,11,0.00
2013,12,18,03,12,0.00
2013,12,18,03,13,0.00
2013,12,18,03,14,0.00
2013,12,18,03,15,0.00
2013,12,18,03,16,0.00
2013,12,18,03,17,0.00
2013,12,18,03,18,0.00
2013,12,18,03,19,0.00
2013,12,18,03,20,0.00
2013,12,18,03,21,0.00
2013,12,18,03,22,0.00
2013,12,18,03,23,0.00
2013,12,18,03,24,0.00
2013,12,18,03,25,0.00
2013,12,18,03,26,0.00
2013,12,18,03,27,0.00
2013,12,18,03,28,0.00
2013,12,18,03,29,0.00
2013,12,18,03,30,0.00
2013,12,18,03,31,0.00
2013,12,18,03,32,0.00
2013,12,18,03,33,0.00
2013,12,18,03,34,0.00
2013,12,18,03,35,0.00
2013,12,18,03,36,0.00
2013,12,18,03,37,0.00
2013,12,18,03,38,0.00
2013,12,18,03,39,0.00
2013,12,18,03,40,0.00
2013,12,18,03,41,0.00
2013,12,18,03,42,0.00
2013,12,18,03,43,0.00
2013,12,18,03,44,0.00
2013,12,18,03,45,0.00
2013,12,18,03,46,0.00
2013,12,18,03,47,0.00
2013,12,18,03,48,0.00
2013,12,18,03,49,0.00
2013,12,18,03,50,0.00
2013,12,18,03,51,0.00
2013,12,18,03,52,0.00
2013,12,18,03,53,0.00
2013,12,18,03,54,0.00
2013,12,18,03,55,0.00
2013,12,18,03,56,0.00
2013,12,18,03,57,0.00
2013,12,18,03,58,0.00
2013,12,18,03,59,0.00
2013,12,18,04,00,0.00
2013,12,18,04,01,0.00
2013,12,18,04,02,0.00
2013,12,18,04,03,0.00
2013,12,18,04,04,0.00
2013,12,18,04,05,0.00
2013,12,18,04,06,0.00
2013,12,18,04,07,0.00
2013,12,18,04,08,0.00
2013,12,18,04,09,0.00
2013,12,18,04,10,0.00
2013,12,18,04,11,0.00
2013,12,18,04,12,0.00
2013,12,18,04,13,0.00
2013,12,18,04,14,0.00
2013,12,18,04,15,0.00
2013,12,18,04,16,0.00
2013,12,18,04,17,0.00
2013,12,18,04,18,0.00
2013,12,18,04,19,0.00
2013,12,18,04,20,0.00
2013,12,18,04,21,0.00
2013,12,18,04,22,0.00
2013,12,18,04,23,0.00
2013,12,18,04,24,0.00
2013,12,18,04,25,0.00
2013,12,18,04,26,0.00
2013,12,18,04,27,0.00
2013,12,18,04,28,0.00
2013,12,18,04,29,0.00
2013,12,18,04,30,0.00
2013,12,18,04,31,0.00
2013,12,18,04,32,0.00
2013,12,18,04,33,0.00
2013,12,18,04,34,0.00
2013,12,18,04,35,0.00
2013,12,18,04,36,0.00
2013,12,18,04,37,0.00
2013,12,18,04,38,0.00
2013,12,18,04,39,0.00
2013,12,18,04,40,0.00
2013,12,18,04,41,0.00
2013,12,18,04,42,0.00
2013,12,18,04,43,0.00
2013,12,18,04,44,0.00
2013,12,18,04,45,0.00
2013,12,18,04,46,0.00
2013,12,18,04,47,0.00
2013,12,18,04,48,0.00
2013,12,18,04,49,0.00
2013,12,18,04,50,0.00
2013,12,18,04,51,0.00
2013,12,18,04,52,0.00
2013,12,18,04,53,0.00
2013,12,18,04,54,0.00
2013,12,18,04,55,0.00
2013,12,18,04,56,0.00
2013,12,18,04,57,0.00
2013,12,18,04,58,0.00
2013,12,18,04,59,0.00
2013,12,18,05,00,0.00
2013,12,18,05,01,0.00
2013,12,18,05,02,0.00
2013,12,18,05,03,0.00
2013,12,18,05,04,0.00
2013,12,18,05,05,0.00
2013,12,18,05,06,0.00
2013,12,18,05,07,0.00
2013,12,18,05,08,0.00
2013,12,18,05,09,0.00
2013,12,18,05,10,0.00
2013,12,18,05,11,0.00
2013,12,18,05,12,0.00
2013,12,18,05,13,0.00
2013,12,18,05,14,0.00
2013,12,18,05,15,0.00
2013,12,18,05,16,0.00
2013,12,18,05,17,0.00
2013,12,18,05,18,0.00
2013,12,18,05,19,0.00
2013,12,18,05,20,0.00
2013,12,18,05,21,0.00
2013,12,18,05,22,0.00
2013,12,18,05,23,0.00
2013,12,18,05,24,0.00
2013,12,18,05,25,0.00
2013,12,18,05,26,0.00
2013,12,18,05,27,0.00
2013,12,18,05,28,0.00
2013,12,18,05,29,0.00
2013,12,18,05,30,0.00
2013,12,18,05,31,0.00
2013,12,18,05,32,0.00
2013,12,18,05,33,0.00
2013,12,18,05,34,0.00
2013,12,18,05,35,0.00
2013,12,18,05,36,0.00
2013,12,18,05,37,0.00
2013,12,18,05,38,0.00
2013,12,18,05,39,0.00
2013,12,18,05,40,0.00
2013,12,18,05,41,0.00
2013,12,18,05,42,0.00
2013,12,18,05,43,0.00
2013,12,18,05,44,0.00
2013,12,18,05,45,0.00
2013,12,18,05,46,0.00
2013,12,18,05,47,0.00
2013,12,18,05,48,0.00
2013,12,18,05,49,0.00
2013,12,18,05,50,0.00
2013,12,18,05,51,0.00
2013,12,18,05,52,0.00
2013,12,18,05,53,0.00
2013,12,18,05,54,0.00
2013,12,18,05,55,0.00
2013,12,18,05,56,0.00
2013,12,18,05,57,0.00
2013,12,18,05,58,0.00
2013,12,18,05,59,0.00
2013,12,18,06,00,0.00
2013,12,18,06,01,0.00
2013,12,18,06,02,0.00
2013,12,18,06,03,0.00
2013,12,18,06,04,0.00
2013,12,18,06,05,0.00
2013,12,18,06,06,0.00
2013,12,18,06,07,0.00
2013,12,18,06,08,0.00
2013,12,18,06,09,0.00
2013,12,18,06,10,0.00
2013,12,18,06,11,0.00
2013,12,18,06,12,0.00
2013,12,18,06,13,0.00
2013,12,18,06,14,0.00
2013,12,18,06,15,0.00
2013,12,18,06,16,0.00
2013,12,18,06,17,0.00
2013,12,18,06,18,0.00
2013,12,18,06,19,0.00
2013,12,18,06,20,0.00
2013,12,18,06,21,0.00
2013,12,18,06,22,0.00
2013,12,18,06,23,0.00
2013,12,18,06,24,0.00
2013,12,18,06,25,0.00
2013,12,18,06,26,0.00
2013,12,18,06,27,0.00
2013,12,18,06,28,0.00
2013,12,18,06,29,0.00
2013,12,18,06,30,0.00
2013,12,18,06,31,0.00
2013,12,18,06,32,0.00
2013,12,18,06,33,0.00
2013,12,18,06,34,0.00
2013,12,18,06,35,0.00
2013,12,18,06,36,0.00
2013,12,18,06,37,0.00
2013,12,18,06,38,0.00
2013,12,18,06,39,0.00
2013,12,18,06,40,0.00
2013,12,18,06,41,0.00
2013,12,18,06,42,0.00
2013,12,18,06,43,0.00
2013,12,18,06,44,0.00
2013,12,18,06,45,0.00
2013,12,18,06,46,0.00
2013,12,18,06,47,0.00
2013,12,18,06,48,0.00
2013,12,18,06,49,0.00
2013,12,18,06,50,0.00
2013,12,18,06,51,0.00
2013,12,18,06,52,0.00
2013,12,18,06,53,0.00
2013,12,18,06,54,0.00
2013,12,18,06,55,0.00
2013,12,18,06,56,0.00
2013,12,18,06,57,0.00
2013,12,18,06,58,0.00
2013,12,18,06,59,0.00
2013,12,18,07,00,0.00
2013,12,18,07,01,0.00
2013,12,18,07,02,0.00
2013,12,18,07,03,0.00
2013,12,18,07,04,0.00
2013,12,18,07,05,0.00
2013,12,18,07,06,0.00
2013,12,18,07,07,0.00
2013,12,18,07,08,0.00
2013,12,18,07,09,0.00
2013,12,18,07,10,0.00
2013,12,18,07,11,0.00
2013,12,18,07,12,0.00
2013,12,18,07,13,0.00
2013,12,18,07,14,0.00
2013,12,18,07,15,0.00
2013,12,18,07,16,0.00
2013,12,18,07,17,0.00
2013,12,18,07,18,0.00
2013,12,18,07,19,0.00
2013,12,18,07,20,0.00
2013,12,18,07,21,0.00
2013,12,18,07,22,0.00
2013,12,18,07,23,0.00
2013,12,18,07,24,0.00
2013,12,18,07,25,0.00
2013,12,18,07,26,0.00
2013,12,18,07,27,0.00
2013,12,18,07,28,0.00
2013,12,18,07,29,0.00
2013,12,18,07,30,0.00
2013,12,18,07,31,0.00
2013,12,18,07,32,0.00
2013,12,18,07,33,0.00
2013,12,18,07,34,0.00
2013,12,18,07,35,0.00
2013,12,18,07,36,0.00
2013,12,18,07,37,0.00
2013,12,18,07,38,0.00
2013,12,18,07,39,0.00
2013,12,18,07,40,0.00
2013,12,18,07,41,0.00
2013,12,18,07,42,0.00
2013,12,18,07,43,0.00
2013,12,18,07,44,0.00
2013,12,18,07,45,0.00
2013,12,18,07,46,0.00
2013,12,18,07,47,0.00
2013,12,18,07,48,0.00
2013,12,18,07,49,0.00
2013,12,18,07,50,0.00
2013,12,18,07,51,0.00
2013,12,18,07,52,0.00
2013,12,18,07,53,0.00
2013,12,18,07,54,0.00
2013,12,18,07,55,0.00
2013,12,18,07,56,0.00
2013,12,18,07,57,0.00
2013,12,18,07,58,0.00
2013,12,18,07,59,0.00
2013,12,18,08,00,0.00
2013,12,18,08,01,0.00
2013,12,18,08,02,0.00
2013,12,18,08,03,0.00
2013,12,18,08,04,0.00
2013,12,18,08,05,0.00
2013,12,18,08,06,0.00
2013,12,18,08,07,0.00
2013,12,18,08,08,0.00
2013,12,18,08,09,0.00
2013,12,18,08,10,0.00
2013,12,18,08,11,0.00
2013,12,18,08,12,0.00
2013,12,18,08,13,0.00
2013,12,18,08,14,4.60
2013,12,18,08,15,5.00
2013,12,18,08,16,5.00
2013,12,18,08,17,5.00
2013,12,18,08,18,5.00
2013,12,18,08,19,6.40
2013,12,18,08,20,7.00
2013,12,18,08,21,7.00
2013,12,18,08,22,7.00
2013,12,18,08,23,7.60
2013,12,18,08,24,9.00
2013,12,18,08,25,9.00
2013,12,18,08,26,9.00
2013,12,18,08,27,9.00
2013,12,18,08,28,10.90
2013,12,18,08,29,11.00
2013,12,18,08,30,11.00
2013,12,18,08,31,11.00
2013,12,18,08,32,11.00
2013,12,18,08,33,11.70
2013,12,18,08,34,12.00
2013,12,18,08,35,12.00
2013,12,18,08,36,12.00
2013,12,18,08,37,12.00
2013,12,18,08,38,12.00
2013,12,18,08,39,13.10
2013,12,18,08,40,14.00
2013,12,18,08,41,14.00
2013,12,18,08,42,14.00
2013,12,18,08,43,14.30
2013,12,18,08,44,16.00
2013,12,18,08,45,16.00
2013,12,18,08,46,17.10
2013,12,18,08,47,18.70
2013,12,18,08,48,19.00
2013,12,18,08,49,21.00
2013,12,18,08,50,23.30
2013,12,18,08,51,25.00
2013,12,18,08,52,25.40
2013,12,18,08,53,27.10
2013,12,18,08,54,29.40
2013,12,18,08,55,31.60
2013,12,18,08,56,33.10
2013,12,18,08,57,35.40
2013,12,18,08,58,37.60
2013,12,18,08,59,39.40
2013,12,18,09,00,41.10
2013,12,18,09,01,43.40
2013,12,18,09,02,46.50
2013,12,18,09,03,49.10
2013,12,18,09,04,51.30
2013,12,18,09,05,53.30
2013,12,18,09,06,54.90
2013,12,18,09,07,57.10
2013,12,18,09,08,59.40
2013,12,18,09,09,61.60
2013,12,18,09,10,63.10
2013,12,18,09,11,65.40
2013,12,18,09,12,67.00
2013,12,18,09,13,68.20
2013,12,18,09,14,71.10
2013,12,18,09,15,73.40
2013,12,18,09,16,75.60
2013,12,18,09,17,77.10
2013,12,18,09,18,79.40
2013,12,18,09,19,81.60
2013,12,18,09,20,83.40
2013,12,18,09,21,85.10
2013,12,18,09,22,87.40
2013,12,18,09,23,89.60
2013,12,18,09,24,91.10
2013,12,18,09,25,93.00
2013,12,18,09,26,93.00
2013,12,18,09,27,94.80
2013,12,18,09,28,97.60
2013,12,18,09,29,99.40
2013,12,18,09,30,101.60
2013,12,18,09,31,103.90
2013,12,18,09,32,104.00
2013,12,18,09,33,105.00
2013,12,18,09,34,107.90
2013,12,18,09,35,110.10
2013,12,18,09,36,112.40
2013,12,18,09,37,113.80
2013,12,18,09,38,115.90
2013,12,18,09,39,116.40
2013,12,18,09,40,118.60
2013,12,18,09,41,120.40
2013,12,18,09,42,122.10
2013,12,18,09,43,123.00
2013,12,18,09,44,124.70
2013,12,18,09,45,125.10
2013,12,18,09,46,127.20
2013,12,18,09,47,128.60
2013,12,18,09,48,130.90
2013,12,18,09,49,132.00
2013,12,18,09,50,133.40
2013,12,18,09,51,134.00
2013,12,18,09,52,134.10
2013,12,18,09,53,135.00
2013,12,18,09,54,135.60
2013,12,18,09,55,137.00
2013,12,18,09,56,138.10
2013,12,18,09,57,139.00
2013,12,18,09,58,141.50
2013,12,18,09,59,142.10
2013,12,18,10,00,142.40
2013,12,18,10,01,120.40
2013,12,18,10,02,67.00
2013,12,18,10,03,31.80
2013,12,18,10,04,26.00
2013,12,18,10,05,26.00
2013,12,18,10,06,26.00
2013,12,18,10,07,26.00
2013,12,18,10,08,26.00
2013,12,18,10,09,26.00
2013,12,18,10,10,26.00
2013,12,18,10,11,26.00
2013,12,18,10,12,26.00
2013,12,18,10,13,26.10
2013,12,18,10,14,28.00
2013,12,18,10,15,28.00
2013,12,18,10,16,27.10
2013,12,18,10,17,26.00
2013,12,18,10,18,26.00
2013,12,18,10,19,26.00
2013,12,18,10,20,27.90
2013,12,18,10,21,28.00
2013,12,18,10,22,28.00
2013,12,18,10,23,28.00
2013,12,18,10,24,28.00
2013,12,18,10,25,28.00
2013,12,18,10,26,32.00
2013,12,18,10,27,94.10
2013,12,18,10,28,173.30
2013,12,18,10,29,193.60
2013,12,18,10,30,195.90
2013,12,18,10,31,198.10
2013,12,18,10,32,199.00
2013,12,18,10,33,199.80
2013,12,18,10,34,201.90
2013,12,18,10,35,202.40
2013,12,18,10,36,204.60
2013,12,18,10,37,206.40
2013,12,18,10,38,208.10
2013,12,18,10,39,209.00
2013,12,18,10,40,210.70
2013,12,18,10,41,212.90
2013,12,18,10,42,213.20
2013,12,18,10,43,214.60
2013,12,18,10,44,216.90
2013,12,18,10,45,219.10
2013,12,18,10,46,220.00
2013,12,18,10,47,220.80
2013,12,18,10,48,223.00
2013,12,18,10,49,225.00
2013,12,18,10,50,225.60
2013,12,18,10,51,227.00
2013,12,18,10,52,228.10
2013,12,18,10,53,229.70
2013,12,18,10,54,230.00
2013,12,18,10,55,232.00
2013,12,18,10,56,234.00
2013,12,18,10,57,234.60
2013,12,18,10,58,236.00
2013,12,18,10,59,236.60
2013,12,18,11,00,237.00
2013,12,18,11,01,238.70
2013,12,18,11,02,239.10
2013,12,18,11,03,241.00
2013,12,18,11,04,241.60
2013,12,18,11,05,243.40
2013,12,18,11,06,244.00
2013,12,18,11,07,245.40
2013,12,18,11,08,246.00
2013,12,18,11,09,247.90
2013,12,18,11,10,248.40
2013,12,18,11,11,250.00
2013,12,18,11,12,250.40
2013,12,18,11,13,251.00
2013,12,18,11,14,252.40
2013,12,18,11,15,253.00
2013,12,18,11,16,253.10
2013,12,18,11,17,255.00
2013,12,18,11,18,255.60
2013,12,18,11,19,257.00
2013,12,18,11,20,257.60
2013,12,18,11,21,258.00
2013,12,18,11,22,259.60
2013,12,18,11,23,258.30
2013,12,18,11,24,260.40
2013,12,18,11,25,262.00
2013,12,18,11,26,262.00
2013,12,18,11,27,262.00
2013,12,18,11,28,263.40
2013,12,18,11,29,264.00
2013,12,18,11,30,264.90
2013,12,18,11,31,265.40
2013,12,18,11,32,267.00
2013,12,18,11,33,267.90
2013,12,18,11,34,269.00
2013,12,18,11,35,269.00
2013,12,18,11,36,269.00
2013,12,18,11,37,267.50
2013,12,18,11,38,272.00
2013,12,18,11,39,272.00
2013,12,18,11,40,272.00
2013,12,18,11,41,272.00
2013,12,18,11,42,273.40
2013,12,18,11,43,274.00
2013,12,18,11,44,274.10
2013,12,18,11,45,276.00
2013,12,18,11,46,276.00
2013,12,18,11,47,276.90
2013,12,18,11,48,278.00
2013,12,18,11,49,278.00
2013,12,18,11,50,278.80
2013,12,18,11,51,279.00
2013,12,18,11,52,279.00
2013,12,18,11,53,279.00
2013,12,18,11,54,279.00
2013,12,18,11,55,279.00
2013,12,18,11,56,280.40
2013,12,18,11,57,281.00
2013,12,18,11,58,281.00
2013,12,18,11,59,281.00
2013,12,18,12,00,281.60
2013,12,18,12,01,283.00
2013,12,18,12,02,283.00
2013,12,18,12,03,283.00
2013,12,18,12,04,283.00
2013,12,18,12,05,283.00
2013,12,18,12,06,283.00
2013,12,18,12,07,283.00
2013,12,18,12,08,283.00
2013,12,18,12,09,283.00
2013,12,18,12,10,283.00
2013,12,18,12,11,283.00
2013,12,18,12,12,283.00
2013,12,18,12,13,283.00
2013,12,18,12,14,283.00
2013,12,18,12,15,283.00
2013,12,18,12,16,283.00
2013,12,18,12,17,283.00
2013,12,18,12,18,283.00
2013,12,18,12,19,283.00
2013,12,18,12,20,283.00
2013,12,18,12,21,283.00
2013,12,18,12,22,283.00
2013,12,18,12,23,283.00
2013,12,18,12,24,283.00
2013,12,18,12,25,283.00
2013,12,18,12,26,281.10
2013,12,18,12,27,281.00
2013,12,18,12,28,281.60
2013,12,18,12,29,282.10
2013,12,18,12,30,281.00
2013,12,18,12,31,281.00
2013,12,18,12,32,281.00
2013,12,18,12,33,281.00
2013,12,18,12,34,280.60
2013,12,18,12,35,279.00
2013,12,18,12,36,279.00
2013,12,18,12,37,279.00
2013,12,18,12,38,279.00
2013,12,18,12,39,279.00
2013,12,18,12,40,278.90
2013,12,18,12,41,278.00
2013,12,18,12,42,278.00
2013,12,18,12,43,278.00
2013,12,18,12,44,278.00
2013,12,18,12,45,276.60
2013,12,18,12,46,276.00
2013,12,18,12,47,276.00
2013,12,18,12,48,276.00
2013,12,18,12,49,276.00
2013,12,18,12,50,275.10
2013,12,18,12,51,275.10
2013,12,18,12,52,274.60
2013,12,18,12,53,274.00
2013,12,18,12,54,272.20
2013,12,18,12,55,273.60
2013,12,18,12,56,272.00
2013,12,18,12,57,271.60
2013,12,18,12,58,271.00
2013,12,18,12,59,271.00
2013,12,18,13,00,271.00
2013,12,18,13,01,269.10
2013,12,18,13,02,268.60
2013,12,18,13,03,267.00
2013,12,18,13,04,267.00
2013,12,18,13,05,265.80
2013,12,18,13,06,265.00
2013,12,18,13,07,265.00
2013,12,18,13,08,265.00
2013,12,18,13,09,264.80
2013,12,18,13,10,264.00
2013,12,18,13,11,263.10
2013,12,18,13,12,262.00
2013,12,18,13,13,260.60
2013,12,18,13,14,260.00
2013,12,18,13,15,258.10
2013,12,18,13,16,258.00
2013,12,18,13,17,258.00
2013,12,18,13,18,256.70
2013,12,18,13,19,255.00
2013,12,18,13,20,255.00
2013,12,18,13,21,253.30
2013,12,18,13,22,251.10
2013,12,18,13,23,250.80
2013,12,18,13,24,250.00
2013,12,18,13,25,249.10
2013,12,18,13,26,248.00
2013,12,18,13,27,246.60
2013,12,18,13,28,246.00
2013,12,18,13,29,244.10
2013,12,18,13,30,244.00
2013,12,18,13,31,243.70
2013,12,18,13,32,243.00
2013,12,18,13,33,241.80
2013,12,18,13,34,239.60
2013,12,18,13,35,239.00
2013,12,18,13,36,237.10
2013,12,18,13,37,236.80
2013,12,18,13,38,235.40
2013,12,18,13,39,234.90
2013,12,18,13,40,233.80
2013,12,18,13,41,230.60
2013,12,18,13,42,229.20
2013,12,18,13,43,228.90
2013,12,18,13,44,226.60
2013,12,18,13,45,225.00
2013,12,18,13,46,224.10
2013,12,18,13,47,221.90
2013,12,18,13,48,221.00
2013,12,18,13,49,220.20
2013,12,18,13,50,218.10
2013,12,18,13,51,217.60
2013,12,18,13,52,215.30
2013,12,18,13,53,214.00
2013,12,18,13,54,213.40
2013,12,18,13,55,211.60
2013,12,18,13,56,211.00
2013,12,18,13,57,208.90
2013,12,18,13,58,206.80
2013,12,18,13,59,205.40
2013,12,18,14,00,204.00
2013,12,18,14,01,202.80
2013,12,18,14,02,200.60
2013,12,18,14,03,199.20
2013,12,18,14,04,198.80
2013,12,18,14,05,196.60
2013,12,18,14,06,194.30
2013,12,18,14,07,192.60
2013,12,18,14,08,190.90
2013,12,18,14,09,190.00
2013,12,18,14,10,188.30
2013,12,18,14,11,186.10
2013,12,18,14,12,185.40
2013,12,18,14,13,183.00
2013,12,18,14,14,181.20
2013,12,18,14,15,172.00
2013,12,18,14,16,160.60
2013,12,18,14,17,156.30
2013,12,18,14,18,165.00
2013,12,18,14,19,169.40
2013,12,18,14,20,170.40
2013,12,18,14,21,156.40
2013,12,18,14,22,138.70
2013,12,18,14,23,129.90
2013,12,18,14,24,132.80
2013,12,18,14,25,127.60
2013,12,18,14,26,118.80
2013,12,18,14,27,122.70
2013,12,18,14,28,141.00
2013,12,18,14,29,141.00
2013,12,18,14,30,141.00
2013,12,18,14,31,149.30
2013,12,18,14,32,146.30
2013,12,18,14,33,147.60
2013,12,18,14,34,143.80
2013,12,18,14,35,138.10
2013,12,18,14,36,134.10
2013,12,18,14,37,132.00
2013,12,18,14,38,122.10
2013,12,18,14,39,112.70
2013,12,18,14,40,98.20
2013,12,18,14,41,119.70
2013,12,18,14,42,118.80
2013,12,18,14,43,117.90
2013,12,18,14,44,121.00
2013,12,18,14,45,118.50
2013,12,18,14,46,107.60
2013,12,18,14,47,103.80
2013,12,18,14,48,93.70
2013,12,18,14,49,83.60
2013,12,18,14,50,91.00
2013,12,18,14,51,97.70
2013,12,18,14,52,101.30
2013,12,18,14,53,103.40
2013,12,18,14,54,96.20
2013,12,18,14,55,93.00
2013,12,18,14,56,97.00
2013,12,18,14,57,99.70
2013,12,18,14,58,95.90
2013,12,18,14,59,97.50
2013,12,18,15,00,91.40
2013,12,18,15,01,92.50
2013,12,18,15,02,89.40
2013,12,18,15,03,86.20
2013,12,18,15,04,85.10
2013,12,18,15,05,83.90
2013,12,18,15,06,79.70
2013,12,18,15,07,72.90
2013,12,18,15,08,80.60
2013,12,18,15,09,78.40
2013,12,18,15,10,76.60
2013,12,18,15,11,74.90
2013,12,18,15,12,72.60
2013,12,18,15,13,70.30
2013,12,18,15,14,69.00
2013,12,18,15,15,68.20
2013,12,18,15,16,64.30
2013,12,18,15,17,62.50
2013,12,18,15,18,60.90
2013,12,18,15,19,58.60
2013,12,18,15,20,58.00
2013,12,18,15,21,55.90
2013,12,18,15,22,53.80
2013,12,18,15,23,52.30
2013,12,18,15,24,50.10
2013,12,18,15,25,47.80
2013,12,18,15,26,46.30
2013,12,18,15,27,44.30
2013,12,18,15,28,42.00
2013,12,18,15,29,40.00
2013,12,18,15,30,39.70
2013,12,18,15,31,38.10
2013,12,18,15,32,35.90
2013,12,18,15,33,33.60
2013,12,18,15,34,32.20
2013,12,18,15,35,30.10
2013,12,18,15,36,30.00
2013,12,18,15,37,28.70
2013,12,18,15,38,25.60
2013,12,18,15,39,23.90
2013,12,18,15,40,23.00
2013,12,18,15,41,21.30
2013,12,18,15,42,20.90
2013,12,18,15,43,19.00
2013,12,18,15,44,18.70
2013,12,18,15,45,18.00
2013,12,18,15,46,16.90
2013,12,18,15,47,16.00
2013,12,18,15,48,16.00
2013,12,18,15,49,14.10
2013,12,18,15,50,14.00
2013,12,18,15,51,14.00
2013,12,18,15,52,14.00
2013,12,18,15,53,12.90
2013,12,18,15,54,12.00
2013,12,18,15,55,12.00
2013,12,18,15,56,12.00
2013,12,18,15,57,12.00
2013,12,18,15,58,12.00
2013,12,18,15,59,12.00
2013,12,18,16,00,11.40
2013,12,18,16,01,11.00
2013,12,18,16,02,11.00
2013,12,18,16,03,11.00
2013,12,18,16,04,11.00
2013,12,18,16,05,11.00
2013,12,18,16,06,10.10
2013,12,18,16,07,9.00
2013,12,18,16,08,9.00
2013,12,18,16,09,9.00
2013,12,18,16,10,9.00
2013,12,18,16,11,8.60
2013,12,18,16,12,7.00
2013,12,18,16,13,7.00
2013,12,18,16,14,7.00
2013,12,18,16,15,7.00
2013,12,18,16,16,7.00
2013,12,18,16,17,7.00
2013,12,18,16,18,6.60
2013,12,18,16,19,5.00
2013,12,18,16,20,5.00
2013,12,18,16,21,5.00
2013,12,18,16,22,5.00
2013,12,18,16,23,5.00
2013,12,18,16,24,5.00
2013,12,18,16,25,3.90
2013,12,18,16,26,0.00
2013,12,18,16,27,0.00
2013,12,18,16,28,0.00
2013,12,18,16,29,0.00
2013,12,18,16,30,0.00
2013,12,18,16,31,0.00
2013,12,18,16,32,0.00
2013,12,18,16,33,0.00
2013,12,18,16,34,0.00
2013,12,18,16,35,0.00
2013,12,18,16,36,0.00
2013,12,18,16,37,0.00
2013,12,18,16,38,0.00
2013,12,18,16,39,0.00
2013,12,18,16,40,0.00
2013,12,18,16,41,0.00
2013,12,18,16,42,0.00
2013,12,18,16,43,0.00
2013,12,18,16,44,0.00
2013,12,18,16,45,0.00
2013,12,18,16,46,0.00
2013,12,18,16,47,0.00
2013,12,18,16,48,0.00
2013,12,18,16,49,0.00
2013,12,18,16,50,0.00
2013,12,18,16,51,0.00
2013,12,18,16,52,0.00
2013,12,18,16,53,0.00
2013,12,18,16,54,0.00
2013,12,18,16,55,0.00
2013,12,18,16,56,0.00
2013,12,18,16,57,0.00
2013,12,18,16,58,0.00
2013,12,18,16,59,0.00
2013,12,18,17,00,0.00
2013,12,18,17,01,0.00
2013,12,18,17,02,0.00
2013,12,18,17,03,0.00
2013,12,18,17,04,0.00
2013,12,18,17,05,0.00
2013,12,18,17,06,0.00
2013,12,18,17,07,0.00
2013,12,18,17,08,0.00
2013,12,18,17,09,0.00
2013,12,18,17,10,0.00
2013,12,18,17,11,0.00
2013,12,18,17,12,0.00
2013,12,18,17,13,0.00
2013,12,18,17,14,0.00
2013,12,18,17,15,0.00
2013,12,18,17,16,0.00
2013,12,18,17,17,0.00
2013,12,18,17,18,0.00
2013,12,18,17,19,0.00
2013,12,18,17,20,0.00
2013,12,18,17,21,0.00
2013,12,18,17,22,0.00
2013,12,18,17,23,0.00
2013,12,18,17,24,0.00
2013,12,18,17,25,0.00
2013,12,18,17,26,0.00
2013,12,18,17,27,0.00
2013,12,18,17,28,0.00
2013,12,18,17,29,0.00
2013,12,18,17,30,0.00
2013,12,18,17,31,0.00
2013,12,18,17,32,0.00